Time,TemperatureF,DewpointF,PressureIn,WindDirection,WindDirectionDegrees,WindSpeedMPH,WindSpeedGustMPH,Humidity,HourlyPrecipIn,Conditions,Clouds,dailyrainin,SolarRadiationWatts/m^2,SoftwareType,DateUTC
2015-01-31 00:02:00,35.8,32.9,29.23,NNW,338,7.0,7.0,89,0.00,,,0.00,0,Wunderground v.1.15,2015-01-31 00:02:00,
2015-01-31 00:12:00,35.9,33.3,29.24,NNW,342,8.0,8.0,90,0.00,,,0.00,0,Wunderground v.1.15,2015-01-31 00:12:00,
2015-01-31 00:22:00,35.6,33.0,29.24,NW,325,5.0,6.0,90,0.00,,,0.00,0,Wunderground v.1.15,2015-01-31 00:22:00,
2015-01-31 00:32:00,35.5,32.9,29.23,NNE,12,5.0,6.0,90,0.00,,,0.00,0,Wunderground v.1.15,2015-01-31 00:32:00,
2015-01-31 00:42:00,35.5,32.9,29.24,North,360,4.0,5.0,90,0.00,,,0.00,0,Wunderground v.1.15,2015-01-31 00:42:00,
2015-01-31 00:52:00,35.6,33.0,29.24,NNW,331,6.0,10.0,90,0.00,,,0.00,0,Wunderground v.1.15,2015-01-31 00:52:00,
2015-01-31 01:02:00,35.8,33.2,29.24,NNW,346,8.0,8.0,90,0.00,,,0.00,0,Wunderground v.1.15,2015-01-31 01:02:00,
2015-01-31 01:12:00,35.8,32.9,29.25,North,350,6.0,7.0,89,0.00,,,0.00,0,Wunderground v.1.15,2015-01-31 01:12:00,
2015-01-31 01:22:00,35.8,32.9,29.25,NNW,346,6.0,16.0,89,0.00,,,0.00,0,Wunderground v.1.15,2015-01-31 01:22:00,
2015-01-31 01:32:00,36.0,33.1,29.25,WNW,296,9.0,18.0,89,0.00,,,0.00,0,Wunderground v.1.15,2015-01-31 01:32:00,
2015-01-31 01:42:00,36.0,33.1,29.25,NNW,329,9.0,13.0,89,0.00,,,0.01,0,Wunderground v.1.15,2015-01-31 01:42:00,
2015-01-31 01:52:00,35.9,33.0,29.25,North,360,9.0,10.0,89,0.00,,,0.01,0,Wunderground v.1.15,2015-01-31 01:52:00,
2015-01-31 02:02:00,36.0,33.1,29.25,North,5,9.0,9.0,89,0.00,,,0.01,0,Wunderground v.1.15,2015-01-31 02:02:00,
2015-01-31 02:12:00,36.0,33.1,29.25,NE,39,9.0,9.0,89,0.00,,,0.01,0,Wunderground v.1.15,2015-01-31 02:12:00,
2015-01-31 02:22:00,36.0,33.1,29.25,North,350,9.0,9.0,89,0.00,,,0.01,0,Wunderground v.1.15,2015-01-31 02:22:00,
2015-01-31 02:32:00,36.0,33.1,29.25,NW,326,10.0,10.0,89,0.00,,,0.01,0,Wunderground v.1.15,2015-01-31 02:32:00,
2015-01-31 02:42:00,36.0,33.1,29.25,East,91,9.0,9.0,89,0.00,,,0.01,0,Wunderground v.1.15,2015-01-31 02:42:00,
2015-01-31 02:52:00,36.1,32.9,29.26,North,11,11.0,11.0,88,0.00,,,0.01,0,Wunderground v.1.15,2015-01-31 02:52:00,
2015-01-31 03:02:00,36.1,33.2,29.26,NNW,332,9.0,9.0,89,0.00,,,0.01,0,Wunderground v.1.15,2015-01-31 03:02:00,
2015-01-31 03:12:00,36.1,33.2,29.27,NNW,346,10.0,12.0,89,0.00,,,0.01,0,Wunderground v.1.15,2015-01-31 03:12:00,
2015-01-31 03:22:00,35.9,33.0,29.27,NNW,344,9.0,9.0,89,0.00,,,0.01,0,Wunderground v.1.15,2015-01-31 03:22:00,
2015-01-31 03:32:00,36.0,32.8,29.27,NNW,337,8.0,12.0,88,0.00,,,0.01,0,Wunderground v.1.15,2015-01-31 03:32:00,
2015-01-31 03:42:00,36.0,32.8,29.27,North,360,9.0,9.0,88,0.00,,,0.01,0,Wunderground v.1.15,2015-01-31 03:42:00,
2015-01-31 04:02:00,35.7,32.8,29.27,NW,318,9.0,9.0,89,0.00,,,0.01,0,Wunderground v.1.15,2015-01-31 04:02:00,
2015-01-31 04:12:00,35.9,33.3,29.28,NW,315,9.0,9.0,90,0.00,,,0.01,0,Wunderground v.1.15,2015-01-31 04:12:00,
2015-01-31 04:22:00,35.8,32.9,29.28,NW,325,9.0,9.0,89,0.00,,,0.01,0,Wunderground v.1.15,2015-01-31 04:22:00,
2015-01-31 04:32:00,35.7,32.8,29.28,NNW,332,8.0,8.0,89,0.00,,,0.01,0,Wunderground v.1.15,2015-01-31 04:32:00,
2015-01-31 04:42:00,36.0,33.1,29.29,North,360,9.0,14.0,89,0.00,,,0.01,0,Wunderground v.1.15,2015-01-31 04:42:00,
2015-01-31 04:52:00,36.0,33.1,29.30,NW,313,8.0,9.0,89,0.00,,,0.01,0,Wunderground v.1.15,2015-01-31 04:52:00,
2015-01-31 05:02:00,36.1,32.9,29.30,NNE,13,9.0,9.0,88,0.00,,,0.01,0,Wunderground v.1.15,2015-01-31 05:02:00,
2015-01-31 05:12:00,36.2,33.0,29.30,ENE,63,10.0,10.0,88,0.00,,,0.01,0,Wunderground v.1.15,2015-01-31 05:12:00,
2015-01-31 05:22:00,36.3,33.1,29.30,West,266,9.0,9.0,88,0.00,,,0.01,0,Wunderground v.1.15,2015-01-31 05:22:00,
2015-01-31 05:32:00,36.3,33.1,29.31,West,275,9.0,12.0,88,0.00,,,0.01,0,Wunderground v.1.15,2015-01-31 05:32:00,
2015-01-31 05:42:00,36.2,33.0,29.32,North,355,9.0,9.0,88,0.00,,,0.01,0,Wunderground v.1.15,2015-01-31 05:42:00,
2015-01-31 05:52:00,36.2,33.0,29.32,NNW,339,9.0,18.0,88,0.00,,,0.01,0,Wunderground v.1.15,2015-01-31 05:52:00,
2015-01-31 06:02:00,36.2,33.0,29.33,NNW,339,10.0,20.0,88,0.00,,,0.01,0,Wunderground v.1.15,2015-01-31 06:02:00,
2015-01-31 06:12:00,36.3,33.1,29.33,NW,325,11.0,11.0,88,0.00,,,0.01,0,Wunderground v.1.15,2015-01-31 06:12:00,
2015-01-31 06:22:00,36.1,32.9,29.34,NW,325,8.0,8.0,88,0.00,,,0.01,0,Wunderground v.1.15,2015-01-31 06:22:00,
2015-01-31 06:32:00,36.2,32.7,29.35,NNW,329,10.0,10.0,87,0.00,,,0.01,0,Wunderground v.1.15,2015-01-31 06:32:00,
2015-01-31 06:42:00,36.3,32.8,29.35,WNW,290,10.0,11.0,87,0.00,,,0.01,0,Wunderground v.1.15,2015-01-31 06:42:00,